Location: Rimouski
(48.4330°N, 68.5170°W)
Time: 05:26:56
(UTC-04:00)

Daily predictions for brighter satellites

Satellite Brightness Start Highest point End
(mag) Time Altitude Azimuth Time Altitude Azimuth Time Altitude Azimuth
Meteor 1-24 Rocket 3.9 00:02:00 10° N 00:07:47 65° ENE 00:07:53 65° E
H-2A R/B 4.4 00:10:18 16° W 00:10:18 16° W 00:12:29 10° NW
Cosmos 2154 Rocket 4.2 00:10:52 53° E 00:10:55 53° E 00:16:56 10° NNE
Cosmos 1726 Rocket 4.4 00:12:07 49° NNW 00:12:07 49° NNW 00:15:31 10° N
GEOS 3 Rocket 4.4 00:12:48 40° ENE 00:13:56 47° NE 00:19:00 10° NNW
BREEZE-M DEB (TANK) 3.1 00:03:12 10° W 00:14:17 82° N 00:14:19 82° N
RESURS DK-1 3.9 00:17:14 34° NNE 00:17:14 34° NNE 00:19:40 10° NNE
Cosmos 2219 Rocket 3.3 00:14:23 30° W 00:16:22 39° NW 00:21:40 10° NNE
CZ-4B R/B 4.3 00:18:51 14° NNE 00:18:51 14° NNE 00:19:35 10° NNE
CZ-2C R/B 2.8 00:14:02 10° N 00:19:21 68° WNW 00:19:21 68° WNW
Cosmos 2327 Rocket 4.4 00:19:34 78° SW 00:20:00 83° W 00:26:21 10° N
SL-16 R/B 2.4 00:21:37 61° ENE 00:21:37 61° ENE 00:26:32 10° NNE
Cosmos 2333 Rocket 3.4 00:32:48 29° W 00:34:40 36° NW 00:39:53 10° NNE
Cosmos 1898 Rocket 4.4 00:34:11 10° NNW 00:39:11 41° ENE 00:39:41 40° ENE
Iridium 4 Rocket 4.0 00:45:55 48° NNE 00:45:55 48° NNE 00:49:11 10° N
Cosmos 1943 Rocket 3.7 00:42:25 10° NNW 00:47:19 31° NE 00:49:43 22° E
Cosmos 962 Rocket 4.3 00:52:25 78° ESE 00:52:37 79° E 00:58:54 10° N
NOSS 2-2 (E) 4.4 00:54:41 50° NNE 00:54:41 50° NNE 00:58:32 10° NE
Mayak 0.0 00:49:29 10° N 00:52:18 39° NNW 00:52:18 39° NNW
NOSS 3-4 (A) 4.4 00:54:01 26° W 00:57:15 45° NW 01:03:37 10° NE
NOSS 3-4 (C) 4.4 00:54:09 26° W 00:57:21 46° NW 01:03:43 10° NE
Cosmos 2237 Rocket 3.4 00:57:08 29° W 00:58:42 34° NW 01:03:50 10° NNE
Cosmos 2369 Rocket 2.6 00:53:33 10° NNW 00:59:12 57° ENE 00:59:57 52° E
CENTAUR R/B 3.5 00:57:13 10° NW 01:04:34 44° WSW 01:04:37 44° WSW
Nadezhda 3 Rocket 4.3 01:01:19 10° NNW 01:07:27 53° W 01:07:39 53° W
Cosmos 2298 Rocket 4.5 01:04:07 10° NNW 01:09:22 54° ENE 01:09:44 53° E
Cosmos 2341 Rocket 3.9 01:10:16 77° SW 01:10:39 80° W 01:16:57 10° N
USA 215 3.4 01:13:10 52° WSW 01:13:10 52° WSW 01:18:46 10° WNW
Cosmos 1809 Rocket 4.4 01:12:31 69° ESE 01:12:54 71° E 01:19:05 10° NNE
Cosmos 1943 4.2 01:14:20 35° E 01:14:20 35° E 01:19:06 10° NE
Lacrosse 5 3.6 01:19:31 10° WNW 01:24:02 31° N 01:28:34 10° ENE
Cosmos 864 Rocket 4.4 01:31:18 65° SE 01:31:57 70° E 01:38:07 10° NNE
ADEOS Rocket 3.8 01:29:08 10° NNE 01:34:03 32° E 01:34:48 31° ESE
Cosmos 1076 Rocket 4.4 01:31:26 10° NNW 01:34:31 46° NNW 01:34:31 46° NNW
ATLAS CENTAUR R/B 4.0 01:29:05 10° NW 01:35:02 31° W 01:35:02 31° W
H-2A R/B 3.6 01:32:46 10° NNE 01:35:19 39° NNE 01:35:19 39° NNE
Cosmos-2242 4.0 01:37:57 42° ENE 01:37:57 42° ENE 01:41:32 10° NNE
SL-14 R/B 4.4 01:33:55 10° N 01:37:01 43° NNE 01:37:01 43° NNE
SL-08 R/B 4.5 01:36:59 33° E 01:37:58 36° ENE 01:42:19 10° N
Cosmos 1626 4.2 01:37:10 10° NNE 01:40:05 22° ENE 01:40:05 22° ENE
Cosmos 2366 rocket 3.9 01:39:49 70° S 01:40:36 84° E 01:47:00 10° N
Cosmos 1727 Rocket 3.8 01:34:50 10° N 01:41:02 87° ENE 01:41:50 70° SSE
Cosmos 2208 Rocket 4.1 01:42:55 69° WNW 01:42:58 69° WNW 01:48:26 10° NNE
COSMOS 2455 4.5 01:39:32 10° WNW 01:42:17 20° W 01:42:17 20° W
Cosmos 2263 4.0 01:38:37 10° NNW 01:44:16 86° ENE 01:44:36 80° SE
Meteor 2-21 Rocket 4.3 01:44:37 72° SSW 01:45:19 87° WNW 01:51:35 10° N
Cosmos 1470 3.9 01:50:16 41° N 01:50:16 41° N 01:52:55 10° N
Meteor 2-15 Rocket 4.3 01:42:55 10° NNW 01:49:00 68° W 01:49:23 66° WSW
Cosmos 1603 3.7 01:55:31 62° W 01:56:02 66° WNW 02:01:39 10° NNE
Meteor 2-16 Rocket 4.3 01:58:01 68° SSW 01:58:50 83° W 02:04:59 10° N
Meteor 1-11 4.5 01:54:37 10° N 02:00:13 64° ENE 02:01:38 48° SE
Cosmos 2058 3.9 01:59:44 10° N 02:03:38 39° ENE 02:03:52 39° E
NPP 4.2 01:59:50 10° NNE 02:05:04 49° E 02:06:01 44° SE
SL-16 R/B 3.8 02:03:29 22° WNW 02:05:31 26° NW 02:10:16 10° NNE
Cosmos 1953 3.9 02:07:08 28° NW 02:07:08 28° NW 02:09:43 10° N
BREEZE M DEB (TANK) 4.3 02:11:47 21° ESE 02:11:47 21° ESE 02:14:00 10° ESE
Cosmos 1763 Rocket 3.3 02:14:49 71° SE 02:15:06 74° ESE 02:20:11 10° NNE
Cosmos 1842 Rocket 4.0 02:17:43 51° E 02:17:50 52° E 02:22:05 10° NNE
Cosmos 1937 Rocket 4.1 02:14:30 10° NNW 02:18:47 42° W 02:18:47 42° W
PSLV R/B 4.5 02:22:08 10° N 02:26:27 39° WNW 02:26:27 39° WNW
Cosmos 332 Rocket 4.2 02:26:15 48° WNW 02:26:37 49° WNW 02:31:24 10° NNE
Cosmos 1743 Rocket 3.6 02:23:01 10° NNW 02:27:14 73° WNW 02:27:14 73° WNW
Cosmos 1943 Rocket 2.3 02:25:59 10° NW 02:31:11 52° WSW 02:31:11 52° WSW
Cosmos 1125 Rocket 3.6 02:26:22 10° NNW 02:31:37 71° ENE 02:34:02 32° SE
Cosmos 2123 Rocket 4.4 02:26:09 10° N 02:32:23 62° ENE 02:36:15 24° SSE
Cosmos 2151 2.9 02:28:11 10° N 02:32:22 85° NE 02:32:22 85° NE
SL-16 R/B 2.6 02:30:31 30° SSE 02:33:48 80° ENE 02:40:03 10° NNW
Cosmos 468 Rocket 4.4 02:34:49 43° W 02:35:33 46° WNW 02:40:33 10° NNE
Resurs 1-4 Rocket 2.8 02:31:22 10° NNE 02:36:27 47° E 02:38:22 33° SSE
IRS-P3 4.0 02:31:38 10° NNE 02:37:01 89° WNW 02:38:11 57° SSW
Iridium 2 3.8 02:37:22 74° NE 02:37:22 74° NE 02:41:01 10° N
Cosmos 1821 Rocket 4.0 02:35:32 42° S 02:37:47 79° E 02:44:01 10° NNE
Cosmos 1656 Rocket 3.7 02:33:41 10° NNW 02:39:25 86° ENE 02:42:48 26° SSE
Cosmos 1242 Rocket 2.8 02:41:23 64° NE 02:41:23 64° NE 02:44:30 10° NNE
Cosmos 2369 Rocket 3.5 02:38:11 10° NW 02:41:42 25° W 02:41:42 25° W
BREEZE-M DEB (TANK) 2.9 02:44:13 46° ESE 02:44:13 46° ESE 02:48:11 10° E
Gblst 52 Del rocket 4.2 02:41:58 50° SW 02:43:33 77° SSE 02:49:10 10° ENE
USA 229 DEB 3.8 02:38:35 10° NW 02:45:46 87° NE 02:53:05 10° SE
USA 229 3.8 02:38:42 10° NW 02:45:52 87° NE 02:53:11 10° SE
CZ-2D R/B 2.5 02:41:30 10° NNE 02:46:49 57° E 02:48:56 34° SSE
CZ-3A R/B 3.5 02:37:14 10° NW 02:47:24 54° SW 02:52:37 10° SSE
Cosmos 371 Rocket 4.1 02:48:53 35° W 02:49:39 37° WNW 02:54:12 10° N
Cosmos 1934 Rocket 3.9 02:50:06 36° S 02:52:42 78° E 02:58:47 10° NNE
AQUA 3.7 02:49:16 10° NNE 02:54:03 78° WNW 02:55:02 56° SW
Cosmos 1943 3.8 02:56:08 34° W 02:57:56 44° NW 03:03:24 10° NNE
USA 32 4.0 02:54:26 10° NNW 02:59:39 64° W 03:01:01 47° SSW
Cosmos 841 Rocket 3.7 03:01:51 44° WSW 03:03:13 59° WNW 03:08:21 10° NNE
Helios 1A Rocket 3.7 03:00:05 10° N 03:03:52 37° WNW 03:04:07 37° WNW
Cosmos 1633 Rocket 4.4 03:01:07 10° N 03:05:14 38° ENE 03:09:18 10° SE
Cosmos 1605 Rocket 4.2 03:02:48 25° S 03:06:42 71° E 03:13:06 10° NNE
Lacrosse 5 3.0 03:03:05 10° NW 03:07:59 45° NNE 03:12:51 10° E
ARIANE 5 R/B 2.6 03:04:28 10° NNE 03:09:44 76° ESE 03:12:11 32° S
Cosmos 1500 Rocket 4.3 03:07:51 10° NNW 03:11:48 35° W 03:11:48 35° W
Cosmos 1626 3.4 03:12:15 10° NNW 03:14:42 27° WNW 03:14:42 27° WNW
SL-08 R/B 4.2 03:15:58 30° W 03:15:58 30° W 03:20:03 10° NNW
BREEZE-M DEB (TANK) 4.4 03:13:14 28° WSW 03:16:42 89° SSE 03:42:44 10° E
USA 161 4.1 03:16:55 10° E 03:17:48 12° ENE 03:18:42 10° NE
ADEOS Rocket 3.4 03:14:37 10° N 03:19:45 40° WNW 03:21:45 30° WSW
UNK 4.0 03:19:10 41° WSW 03:19:49 44° W 03:24:13 10° NNW
NOSS 3-1 (C) 4.1 03:13:08 10° NW 03:20:32 79° NE 03:28:50 10° SE
Cosmos 304 Rocket 4.1 03:20:35 37° WSW 03:22:02 51° WNW 03:26:44 10° NNE
UNKNOWN OBJECT B 3.5 03:18:27 10° NNE 03:22:27 54° E 03:24:33 26° SSE
Cosmos 1400 Rocket 2.7 03:18:39 10° NNW 03:22:34 67° W 03:23:33 46° SSW
MOZ.5/SAFIR/RUBIN 5/SL-8 3.7 03:22:13 23° S 03:25:09 82° WSW 03:29:53 10° NNW
ADEOS II 4.0 03:22:40 10° NE 03:27:05 26° E 03:31:26 10° SSE
Cosmos 1726 2.6 03:29:17 27° SSE 03:31:05 57° E 03:34:46 10° NNE
IRS-1D 3.6 03:28:59 10° N 03:34:02 62° WNW 03:36:35 29° SW
SL-27 R/B 3.5 03:34:30 23° SSE 03:36:07 38° ESE 03:39:21 10° NE
Cosmos 1666 Rocket 3.5 03:33:49 10° N 03:38:16 84° W 03:41:52 16° S
Cosmos 1805 Rocket 3.7 03:35:53 10° NNW 03:40:14 54° W 03:42:20 28° SSW
Cosmos 2058 4.4 03:37:17 10° NW 03:40:03 20° W 03:40:03 20° W
Cosmos 1447 Rocket 4.4 03:35:49 10° NNW 03:41:58 76° W 03:48:10 10° S
ADEOS 3.6 03:36:59 10° N 03:42:11 70° WNW 03:45:17 25° SSW
Spot 4 Rocket 4.3 03:37:30 10° N 03:42:30 52° WNW 03:45:08 27° SW
Cosmos 2221 2.9 03:41:00 32° SW 03:42:34 48° WNW 03:46:47 10° N
COSMOS 2406 3.2 03:47:05 23° SSW 03:50:41 83° WNW 03:56:27 10° NNE
Cosmos 2285 Rocket 4.0 03:46:52 20° SSW 03:51:29 88° WNW 03:57:56 10° NNE
Cosmos 2098 Rocket 4.4 03:52:13 23° WSW 03:54:59 34° WNW 03:59:29 10° N
Okean O Rocket 3.6 03:52:52 10° NE 03:56:39 27° E 04:00:23 10° SSE
Abrixas 3.0 03:59:00 31° S 03:59:00 31° S 04:01:00 10° SE
Cosmos 540 Rocket 4.2 03:58:15 22° WSW 04:01:05 39° WNW 04:05:54 10° N
Meteor 2-10 4.4 03:57:33 10° S 04:03:16 77° E 04:08:55 10° NNE
Cosmos 482 Debris 3.1 04:04:11 37° W 04:04:50 54° SSW 04:07:53 10° SE
Cosmos 1908 4.4 04:03:42 22° WSW 04:05:00 26° WNW 04:08:18 10° NNW
MOS 1 Rocket 3.9 04:01:06 10° N 04:05:01 34° WNW 04:07:20 20° WSW
Cosmos 1151 Rocket 4.0 04:03:08 10° SSE 04:07:14 46° E 04:11:21 10° NNE
Cosmos 1980 Rocket 4.2 04:03:17 10° NNW 04:08:15 31° NE 04:13:12 10° ESE
Cosmos 2173 Rocket 4.1 04:03:36 10° S 04:09:54 83° E 04:16:19 10° N
Cosmos 2278 3.8 04:06:23 10° NNW 04:12:05 80° ENE 04:17:44 10° SSE
Meteor 2-17 Rocket 4.4 04:08:18 10° SSW 04:14:26 77° W 04:20:34 10° N
Sich 1 3.7 04:10:31 10° NNW 04:14:33 36° W 04:17:46 14° SSW
Cosmos 1300 2.8 04:12:33 17° SSW 04:15:23 60° WNW 04:19:12 10° N
Resurs 1-4 Rocket 3.2 04:11:38 10° N 04:16:05 29° WNW 04:19:26 15° WSW
BREEZE M DEB (TANK) 3.4 04:17:34 17° S 04:17:34 17° S 04:18:46 10° SSE
SL-16 R/B 3.8 04:15:37 16° WSW 04:18:07 20° W 04:22:33 10° NW
CZ-2D R/B 3.9 04:14:37 10° N 04:18:28 43° WNW 04:21:16 17° SW
Cosmos 1697 Rocket 3.4 04:18:52 10° NNW 04:24:29 59° ENE 04:30:05 10° SE
Cosmos 1315 Rocket 3.9 04:22:23 10° NW 04:25:48 26° W 04:28:33 13° SW
CZ-2D R/B 3.4 04:22:12 10° N 04:26:32 25° WNW 04:30:15 12° WSW
Cosmos 1470 Rocket 3.6 04:26:25 10° NNW 04:30:39 56° W 04:34:53 10° S
Cosmos 1455 3.2 04:28:25 10° SSE 04:32:01 46° E 04:35:39 10° NNE
Cosmos 1459 Rocket 4.0 04:26:47 10° SSW 04:32:52 68° WNW 04:38:56 10° N
ATLAS 2AS CENTAUR R/B 4.0 04:27:30 10° NW 04:35:26 52° NE 04:42:54 10° ESE
Cosmos 1538 Rocket 4.1 04:30:45 10° SSW 04:36:06 71° WNW 04:41:30 10° NNE
Cosmos 2228 Rocket 3.2 04:31:47 10° SSW 04:36:13 61° WNW 04:40:38 10° N
NOSS 3-1 (A) 4.1 04:34:24 10° NW 04:41:45 57° WSW 04:49:53 10° SSE
Cosmos 1633 Rocket 4.3 04:39:21 10° NW 04:42:49 23° W 04:46:14 10° SW
Cosmos 2082 Rocket 3.1 04:37:32 10° S 04:42:55 50° ESE 04:48:21 10° NE
Cosmos 1515 Rocket 3.6 04:38:58 10° SSW 04:43:18 61° WNW 04:47:43 10° N
Meteor 2-3 Rocket 3.7 04:38:41 10° NNW 04:44:17 70° W 04:49:55 10° S
Cosmos 923 Rocket 4.3 04:39:42 10° S 04:44:52 69° ESE 04:50:07 10° NNE
PSLV R/B 3.9 04:41:06 10° N 04:45:15 75° WNW 04:49:23 10° SSW
USA 161 2.7 04:47:07 12° WSW 04:47:25 13° W 04:48:25 10° WNW
ARIANE 5 R/B 4.2 04:44:38 10° NNW 04:48:17 19° WNW 04:51:56 10° WSW
Tiangong 2 3.7 04:48:23 10° S 04:49:41 12° SSE 04:50:59 10° SE
Lacrosse 5 1.9 04:46:08 10° WNW 04:51:08 59° SW 04:56:07 10° SE
Cosmos 2061 Rocket 4.2 04:46:01 10° SSW 04:52:20 57° WNW 04:58:40 10° N
Cosmos 1869 Rocket 4.1 04:47:54 10° N 04:52:23 67° ENE 04:56:49 10° SSE
CZ-4B R/B 3.2 04:49:51 10° N 04:54:16 71° WNW 04:58:46 10° SSW
CZ-4B R/B 3.4 04:49:49 10° NNE 04:55:22 77° ESE 05:00:46 10° S
Meteor 1-31 Rocket 4.0 04:52:31 10° NNE 04:56:20 45° E 05:00:07 10° S
Meteor PRIRODA 4.2 04:57:05 10° NNE 05:00:45 60° E 05:04:21 10° S
PAYLOAD B 4.3 04:57:07 10° NNE 05:02:46 84° WNW 05:08:21 10° SSW
